TimeCDT,TemperatureF,Dew PointF,Humidity,Sea Level PressureIn,VisibilityMPH,Wind Direction,Wind SpeedMPH,Gust SpeedMPH,PrecipitationIn,Events,Conditions,WindDirDegrees,DateUTC
12:54 AM,34.0,26.1,73,30.35,10.0,NE,6.9,-,N/A,,Clear,50,2013-04-17 05:54:00
1:54 AM,34.0,25.0,70,30.34,10.0,ENE,9.2,-,N/A,,Clear,60,2013-04-17 06:54:00
2:54 AM,33.1,25.0,72,30.35,10.0,ENE,10.4,-,N/A,,Partly Cloudy,70,2013-04-17 07:54:00
3:54 AM,33.1,26.1,75,30.35,10.0,East,10.4,-,N/A,,Clear,80,2013-04-17 08:54:00
4:54 AM,30.9,26.1,82,30.35,10.0,East,10.4,-,N/A,,Clear,80,2013-04-17 09:54:00
5:54 AM,30.9,26.1,82,30.33,10.0,East,10.4,-,N/A,,Clear,80,2013-04-17 10:54:00
6:54 AM,32.0,26.1,79,30.33,10.0,East,12.7,-,N/A,,Mostly Cloudy,90,2013-04-17 11:54:00
7:54 AM,32.0,27.0,82,30.36,10.0,East,11.5,24.2,N/A,,Overcast,100,2013-04-17 12:54:00
9:54 AM,35.1,28.0,76,30.27,10.0,ENE,18.4,21.9,N/A,,Overcast,70,2013-04-17 14:54:00
10:54 AM,35.1,28.0,76,30.26,10.0,East,12.7,-,N/A,,Overcast,80,2013-04-17 15:54:00
11:54 AM,36.0,28.0,73,30.28,10.0,East,9.2,-,N/A,,Overcast,90,2013-04-17 16:54:00
12:54 PM,37.0,28.9,73,30.29,10.0,East,6.9,-,0.00,,Overcast,90,2013-04-17 17:54:00
1:54 PM,36.0,30.0,79,30.24,8.0,ENE,9.2,-,0.00,Rain,Light Rain,70,2013-04-17 18:54:00
2:54 PM,37.0,30.9,79,30.13,10.0,East,23.0,29.9,0.00,,Mostly Cloudy,90,2013-04-17 19:54:00
3:54 PM,37.9,30.9,76,30.11,10.0,East,12.7,23.0,0.00,,Overcast,100,2013-04-17 20:54:00
4:54 PM,39.0,30.0,70,30.12,10.0,East,11.5,20.7,N/A,,Overcast,80,2013-04-17 21:54:00
5:47 PM,37.4,28.4,70,30.04,10.0,East,18.4,24.2,N/A,,Overcast,90,2013-04-17 22:47:00
5:54 PM,37.9,28.9,70,30.09,10.0,East,16.1,24.2,N/A,,Overcast,90,2013-04-17 22:54:00
6:54 PM,37.0,30.0,76,30.03,10.0,East,15.0,-,N/A,,Overcast,80,2013-04-17 23:54:00
7:54 PM,36.0,30.0,79,30.02,8.0,East,13.8,23.0,N/A,,Overcast,80,2013-04-18 00:54:00
8:32 PM,35.6,30.2,81,29.94,10.0,East,15.0,-,N/A,,Overcast,80,2013-04-18 01:32:00
8:54 PM,36.0,30.9,82,30.00,10.0,East,13.8,24.2,N/A,,Overcast,80,2013-04-18 01:54:00
9:54 PM,36.0,32.0,86,29.99,6.0,ENE,13.8,-,N/A,,Overcast,70,2013-04-18 02:54:00
10:37 PM,35.6,33.8,93,29.92,4.0,ENE,13.8,-,0.00,Rain,Light Rain,70,2013-04-18 03:37:00
10:54 PM,35.1,34.0,96,29.96,4.0,ENE,11.5,-,0.00,Rain,Light Rain,70,2013-04-18 03:54:00
11:50 PM,35.6,33.8,93,29.90,6.0,ENE,11.5,-,0.00,Rain,Light Rain,70,2013-04-18 04:50:00
11:54 PM,35.1,34.0,96,29.93,6.0,ENE,12.7,-,0.00,Rain,Light Rain,70,2013-04-18 04:54:00